Home   Weather   Havana   Past weeks

Flag for Cuba Past Weather in Havana, Cuba — Yesterday and Last 2 Weeks

Now
86 °F

Scattered clouds.


Feels Like: 92 °F
Forecast: 81 / 88 °F
Wind: 17 mph from Northeast

Location: Aeropuerto Jose Marti - Rancho-Boyeros - Habana

Current Time: Oct 1, 2016 at 3:02:59 PM

Latest Report: Oct 1, 2016 at 1:55 PM


Visibility: 6 mi

Pressure: 29.95 "Hg

Humidity: 62%

Dew Point: 72 °F

Location of HavanaLocation

Past Weather in Havana — Graph

°F

Havana Temperature Yesterday

Maximum temperature yesterday: 88 °F (at 12:55 PM)
Minimum temperature yesterday: 73 °F (at 5:55 PM)
Average temperature yesterday: 77 °F

High & Low Weather Summary for the Past Weeks

 TemperatureHumidityPressure
High91 °F (Sep 18, 3:55 PM)94% (Sep 17, 7:55 AM)30.09 "Hg (Sep 17, 7:55 AM)
Low70 °F (Sep 24, 6:55 AM)46% (Sep 18, 3:55 PM)29.92 "Hg (Sep 18, 4:55 PM)
Average79 °F78%29.99 "Hg
* Reported Sep 16 1:55 PM — Oct 1 1:55 PM, Havana, Weather by CustomWeather, © 2016

Note: Actual official high and low records may vary slightly from our data, if they occured in-between our weather recording intervals... More about our weather records

Advertising

Havana Weather History for the Previous 24 Hours

Scroll right to see more
 ConditionsComfort  
Time TempWeatherWind HumidityBarometerVisibility
1:55 PM
Sat, Oct 1
86 °FScattered clouds.17 mph62%29.95 "Hg6 mi
12:55 PM88 °FScattered clouds.13 mph59%29.98 "Hg6 mi
11:55 AM86 °FScattered clouds.8 mph62%29.98 "Hg6 mi
10:55 AM86 °FScattered clouds.9 mph62%30.01 "Hg6 mi
9:55 AM82 °FPassing clouds.6 mph74%30.01 "Hg6 mi
8:55 AM77 °FPassing clouds.No wind83%29.98 "Hg6 mi
7:55 AM73 °FPassing clouds.2 mph89%29.98 "Hg6 mi
6:55 AM73 °FPassing clouds.3 mph89%29.98 "Hg6 mi
5:55 AM73 °FPassing clouds.3 mph89%29.95 "Hg6 mi
4:55 AM72 °FPassing clouds.No wind88%29.95 "Hg6 mi
3:55 AM73 °FPassing clouds.No wind89%29.95 "Hg6 mi
2:55 AM73 °FOvercast.5 mph89%29.98 "Hg5 mi
1:55 AM75 °FMostly cloudy.3 mph83%29.98 "Hg6 mi
12:55 AM73 °FOvercast.2 mph89%30.01 "Hg5 mi
11:55 PM
Fri, Sep 30
75 °FOvercast.5 mph83%30.04 "Hg5 mi
10:55 PM73 °FLight rain. Overcast.6 mph89%30.04 "Hg5 mi
9:55 PM73 °FOvercast.5 mph89%30.01 "Hg6 mi
8:55 PM73 °FOvercast.2 mph89%30.01 "Hg6 mi
7:55 PM73 °FMostly cloudy.1 mph89%29.98 "Hg6 mi
6:55 PM75 °FLight rain. More clouds than sun.8 mph89%N/A5 mi
5:55 PM73 °FLight rain. Broken clouds.5 mph89%N/A5 mi
4:55 PM75 °FLight rain. Partly sunny.1 mph78%29.95 "Hg5 mi
3:55 PM79 °FLight rain. Broken clouds.3 mph84%N/A5 mi
Weather by CustomWeather, © 2016

See weather overviewHow to use our weather pages